Regional Weather Roundup
Issued by NWS Green Bay, WI

Home | Current Version | Previous Version | Text Only | Print | Product List | Glossary On
Versions: 1 2 3 4 5 6 7 8 9 10 11 12 13 14 15 16 17 18 19 20 21 22 23 24 25 26 27 28 29 30 31 32 33 34 35 36 37 38 39 40 41 42 43 44 45 46 47 48 49 50
000
ASUS43 KGRB 241011
RWRGRB

NORTH-CENTRAL AND NORTHEAST WISCONSIN REGIONAL WEATHER ROUNDUP
NATIONAL WEATHER SERVICE GREEN BAY WI
500 AM CDT TUE OCT 24 2017

WIZ005-009-010>012-018-019-241100-
NORTH CENTRAL WISCONSIN

CITY           SKY/WX    TMP DP  RH WIND       PRES   REMARKS
IRONWOOD       CLOUDY    43  42  97 N20G30    29.61R
MANITOWISH WTR DRIZZLE   43  43 100 NW16G22   29.55S
ARBOR VITAE    RAIN      43  42  95 NW13G24   29.53S
EAGLE RIVER    RAIN      44  44  99 N7G17     29.50S
LAND O LAKES   LGT RAIN  46  43  91 N13G23    29.52S
RHINELANDER    LGT RAIN  42  42 100 NW12G22   29.52F FOG
PHILLIPS       CLOUDY    38  38  99 NW14G21   29.60F
ANTIGO         DRIZZLE   42  41  97 NW15G21   29.50S
TOMAHAWK       DRIZZLE   39  38  93 NW16G24   29.55F
MERRILL        DRIZZLE   41  40  97 NW13G20   29.55S
$$

WIZ013-073-241100-
NORTHEAST WISCONSIN

CITY           SKY/WX    TMP DP  RH WIND       PRES   REMARKS
IRON MOUNTAIN  LGT RAIN  48  41  76 NW16      29.39F
MARINETTE      LGT RAIN  49  44  83 VRB7      29.39F
OCONTO         CLOUDY    48  45  88 NW6       29.42F
$$

WIZ017-030-035>037-045-241100-
CENTRAL WISCONSIN

CITY           SKY/WX    TMP DP  RH WIND       PRES   REMARKS
MEDFORD        DRIZZLE   40  37  90 NW18G28   29.59S
WAUSAU         LGT RAIN  42  40  92 NW15G21   29.54S
MOSINEE        RAIN      41  41 100 NW16      29.56S
MARSHFIELD     LGT RAIN  42  37  82 NW17G28   29.58S
WISC RAPIDS    RAIN      43  40  89 N17G24    29.58R
STEVENS POINT  LGT RAIN  41  41  99 NW7G18    29.55S
WAUPACA        LGT RAIN  47  45  92 NW13      29.52S
SHAWANO        DRIZZLE   48  44  85 W9G17     29.47S
CLINTONVILLE   RAIN      46  43  87 NW13      29.49S
WAUTOMA        LGT RAIN N/A N/A N/A NW14G20   29.54S
$$

WIZ038-039-048-051-241100-
FOX VALLEY

CITY           SKY/WX    TMP DP  RH WIND       PRES   REMARKS
NWS GREEN BAY  LGT RAIN  49  48  97 W10       29.45F
APPLETON       LGT RAIN  45  45 100 NW15      29.47S
OSHKOSH        LGT RAIN  47  44  90 NW15G23   29.48S
FOND DU LAC    RAIN      48  43  82 NW15G26   29.48S
$$

WIZ022-050-052-241100-
EAST CENTRAL WISCONSIN

CITY           SKY/WX    TMP DP  RH WIND       PRES   REMARKS
EPHRAIM        LGT RAIN  47  44  89 NW14G21   29.35F
WASHINGTON ISL RAIN      47  44  88 NW20G26   29.31F
STURGEON BAY   LGT RAIN  49  45  86 W12       29.40F
MANITOWOC      LGT RAIN  48  45  89 W6        29.45F
SHEBOYGAN      LGT RAIN  49  48  97 NW7       29.46S
$$

LMZ563-521-522-541>543-241100-
LAKESHORE

STATION/POSITION TIME  TEMP    WIND        PRES    VSBY  WAVE
                       AIR SEA DIR/SP/G                  HT/PER
                 (UTC) (F)     (DEG/KT/KT) (MB)    (MI)  (FT/S)
SHEBOYGAN LKSHOR 1000   49     310/  9/ 11  997.4S
KEWAUNEE LKSHORE 0948   48     280/  4/  6  995.9F
NORTHPORT PIER   0954   49     300/ 17/ 25  993.2F
N MID LAKE BUOY  0950   48 56  310/ 29/ 37  991.6F         7/ 6
S GREEN BAY BUOY 1000   51 58  280/ 14/ 17  996.3
SISTER BAY LKSHO 1004   49     320/ 26/ 32   N/A
MENOMINEE LKSHOR 0948   50     290/  8/ 13  995.0F
$$



USA.gov is the U.S. government's official web portal to all federal, state and local government web resources and services.